STARLINK-11644, 63672

Orbit data source: Space-Track

STARLINK-11644, 63672 is a payload satellite owned by SpaceX/Seattle (US) in LEO that was launched on Mon, 28 Apr 2025 UTC via an FALCON 9 launch vehicle from the Air Force Eastern Test Range (AFETR). Payload-class satellites include a variety of spacecraft equipped with specific instruments for various scientific and technological missions. These include communications satellites like Starlink; space stations such as the ISS; scientific satellites like the Hubble; Earth observation satellites from companies like Planet Labs, Umbra, and HawkEye 360; GPS; miniature CubeSats for education and research; and military/defense satellites.

Loading next visibility...
Identifier
63672, 2025-085J
Orbit
LEO
Country
Flag of USUS
Related business
Manufacturer
SpaceX/Seattle
Mission
Operational Commercial Communications
Bus & Motor
STARLINK V2MD, Unknown motor
Mass
960 kg wet, ~910 kg dry
Launch date (UTC)
2025-04-28 (1 year ago)
Launch vehicle
FALCON 9
Launch site
Air Force Eastern Test Range (AFETR)
Object type
Payload
Rocket body
Debris
Shape & HBR
Box + 2 Pan, 18.1 m
Radar Cross Section
36.964 m², Large (>1 m²)

Expand to show TLE details & history
Last TLE update: 22 hours ago

TLE from 22 hours ago
0 STARLINK-11644
1 63672U 25085J   26171.00788999  .00261905  00000-0  19801-2 0  9995
2 63672  42.9975  21.6952 0001311 339.2478  20.8336 15.70850483 66330
Epoch: 2026-06-20T00:11Z
TLE epoch observation values (Epoch: 2026-06-20T00:11:21.695Z)
Latitude
-0.00002°
Longitude
110.6261°
Altitude
355.411 km
Speed
7.698 km/s
True Right ascension
01h 26m 46s
True Declination
0° 00' 00"
Sunlit
Object was in daylight at epoch
Visualization orbit readout
Latitude
Unknown
Longitude
Unknown
Altitude
Unknown
Speed
Unknown
Apparent Right ascension
Unknown
Apparent Declination
Unknown
Sunlit
N/A
Visualization observer readout
Local Sidereal Time
08:41:33
Azimuth
Unknown
Elevation
Unknown
Doppler factor
Unknown
Orbital elements
Apogee altitude
359.33 km
Perigee altitude
357.564 km
Semi-major axis
6,736.584 km
Eccentricity
0.00013
Inclination
42.9975°
RAAN
21.6952°
Arg. of periapsis
339.2478°
True anomaly
20.83894°
Mean anomaly
20.8336°
Eccentric anomaly
20.83627°
Mean motion
3.9254 °/min
Orbital period
91.71 mins
BSTAR
0.0019801
Loading maneuver chart data...
Computing Atmospheric mass density...
Loading historical data...
Loading historical data...
Loading historical data...
Loading historical data...
Loading historical data...
Loading historical data...
Loading historical data...

Documentation

Showing up to 5 results
|